Regional Weather Roundup
Issued by NWS

Home | Current Version | Previous Version | Graphics & Text | Print | Product List | Glossary On
Versions: 1 2 3 4 5 6 7 8 9 10 11 12 13 14 15 16 17 18 19 20 21 22 23 24 25 26 27 28 29 30 31 32 33 34 35 36 37 38 39 40 41 42 43 44 45 46 47 48 49 50
000
ASUS43 KMPX 171010
RWRMN
WEATHER ROUNDUP FOR MINNESOTA
NATIONAL WEATHER SERVICE TWIN CITIES/CHANHASSEN MN
500 AM CDT THU AUG 17 2017


NOTE: "FAIR" INDICATES FEW OR NO CLOUDS BELOW 12,000 FEET WITH NO
SIGNIFICANT WEATHER AND/OR OBSTRUCTIONS TO VISIBILITY. N/A MEANS
CURRENT SKY AND/OR WEATHER CONDITIONS ARE NOT AVAILABLE.

MNZ060>063-068>070-171100-
   Twin Cities Metro

CITY           SKY/WX    TMP DP  RH WIND       PRES   REMARKS
TWIN CITIES    LGT RAIN  67  64  90 SE12      29.47F
ST PAUL        LGT RAIN  67  66  97 E8        29.49F
CRYSTAL        LGT RAIN  67  63  87 E7        29.47S
BLAINE         DRIZZLE   66  66 100 E5        29.49S
LAKEVILLE      HVY RAIN  64  64 100 SE7G16    29.44F
EDEN PRAIRIE   CLOUDY    67  65  93 NE8       29.44F FOG
SOUTH ST PAUL  LGT RAIN  66  65  99 SE5       29.48F
LAKE ELMO      LGT RAIN  66  64  94 SE7       29.52S
$$
MNZ001>005-007-008-013>017-022>024-027-028-171100-
   Northwest Minnesota

CITY           SKY/WX    TMP DP  RH WIND       PRES   REMARKS
BEMIDJI        RAIN      61  60  97 NE8       29.75S
HALLOCK        FOG       55  55 100 NW5       29.83S VSB 1/2
ROSEAU           N/A     61  55  82 N7        29.82R
WARROAD        CLOUDY    63  57  82 N6        29.82R
THIEF RVR FALL CLOUDY    61  60  97 N14       29.80S
CROOKSTON      CLOUDY    63  61  94 N12       29.80S
FOSSTON        DRIZZLE   61  59  94 N10G16    29.77S
DETROIT LAKES  DRIZZLE   63  63 100 N9        29.75R
MOORHEAD       CLOUDY    61 N/A N/A N15G21    29.77S
PARK RAPIDS    LGT RAIN  63  61  93 N10       29.71F
MAHNOMEN       CLOUDY    61  61  98 N12       29.75S
$$
MNZ006-009>011-018-025>026-171100-
   North Central Minnesota

CITY           SKY/WX    TMP DP  RH WIND       PRES   REMARKS
BAUDETTE       CLOUDY    60  59  96 NE8       29.80R
FLAG ISLAND    CLOUDY    63  57  82 NE3       29.81S
INTL FALLS     RAIN      61  59  93 NE6       29.79S FOG
WASKISH        LGT RAIN  61  59  94 NE7       29.77S
BIG FORK       RAIN      59  57  94 N6        29.74F
LONGVILLE      LGT RAIN  61  59  94 N3        29.70R
GRAND RAPIDS   RAIN      60  59  96 N8        29.72S
CRANE LAKE     RAIN      57  57 100 CALM      29.79F
ORR            LGT RAIN  57  55  94 CALM      29.73F
COOK           LGT RAIN  59  57  94 CALM      29.74F
WALKER         RAIN      60  59  97 N7        29.73S
$$
MNZ012-019>021-037-171100-
   Northeast Minnesota

CITY           SKY/WX    TMP DP  RH WIND       PRES   REMARKS
DULUTH         LGT RAIN  59  59 100 NE15G32   29.65F FOG
ELY            RAIN      57  57 100 N5        29.74F
HIBBING        HVY RAIN  57  57 100 NE6       29.71R FOG
EVELETH        RAIN      57  55  94 NE9G16    29.71F
DULUTH HARBOR  DRIZZLE   63  61  94 NE26G35   29.62F
TWO HARBORS    LGT RAIN  63  57  82 E14G21    29.65F
GRAND MARAIS     N/A     63  61  93 NE9       29.72F
G MARAIS ARPRT LGT RAIN  57  54  88 NE8       29.78F
$$
MNZ029>031-032-039>041-046>048-054>057-064-171100-
   West Central Minnesota

CITY           SKY/WX    TMP DP  RH WIND       PRES   REMARKS
FERGUS FALLS   CLOUDY    64  64 100 N10G18    29.72R
WHEATON        CLOUDY    63  61  94 NW17G23   29.75R
MORRIS         DRIZZLE   64  64 100 NW16      29.69R
ALEXANDRIA     LGT RAIN  64  64 100 N12       29.69R
ELBOW LAKE     DRIZZLE   64  64 100 NW14      29.71R
WADENA         RAIN      63  63 100 N10       29.69F
GLENWOOD       DRIZZLE   64  63  94 NW15G23   29.66S
APPLETON       LGT RAIN  66  63  88 NW17G23   29.69R
BENSON         DRIZZLE   66  64  94 N14       29.68R
ORTONVILLE     CLOUDY    64  63  94 MISG      29.72R
MADISON        LGT RAIN  66  66 100 NW21      29.70S
WILLMAR        CLOUDY    64  64 100 NW20G26   29.63R
$$
MNZ033>034-036-042>043-049>051-058-059-171100-
   Central Minnesota

CITY           SKY/WX    TMP DP  RH WIND       PRES   REMARKS
ST CLOUD       HVY RAIN  64  64 100 N10G23    29.54R FOG
SAUK CENTRE    HVY RAIN  63  62  96 N14G21    29.63R
PAYNESVILLE    LGT RAIN  63  63  98 N12G20    29.60R
AITKIN         RAIN      61  57  88 N12G18    29.62F
PINE RIVER     RAIN      59  57  94 N12       29.71F
BRAINERD       LGT RAIN  62  61  96 N15       29.63F
STAPLES        LGT RAIN  61  61 100 N9        29.67S
LONG PRAIRIE   RAIN      61  61 100 NW15      29.64R
LITTLE FALLS   DRIZZLE   61  59  94 N7G16     29.61R
LITCHFIELD     DRIZZLE   64  64 100 NW20G26   29.56R
BUFFALO        DRIZZLE   67  65  93 N6        29.49R
MAPLE LAKE     DRIZZLE   67  66  97 N12G18    29.51R
HUTCHINSON     RAIN      65  64  99 NW20G25   29.53R
$$
MNZ037-044-045-052-053-171100-
   East Central Minnesota

CITY           SKY/WX    TMP DP  RH WIND       PRES   REMARKS
PRINCETON      DRIZZLE   66  64  94 N10       29.52R
MORA           LGT RAIN  61  59  94 NE6       29.57S
RUSH CITY      RAIN      66  65  94 NE6       29.53F
MOOSE LAKE     LGT RAIN  61  59  94 NE8G18    29.59F
HINCKLEY       RAIN      64  64 100 NE10      29.56F
CLOQUET        CLOUDY    61  57  88 E10G20    29.64S
MCGREGOR       CLOUDY    61  59  94 N7        29.64F
$$
MNZ071>073-080-081-089-090-097-098-171100-
   Southwest Minnesota

CITY           SKY/WX    TMP DP  RH WIND       PRES   REMARKS
MONTEVIDEO     DRIZZLE   64  64 100 N12G21    29.67S
GRANITE FALLS  DRIZZLE   67  65  96 W14G20    29.68R
CANBY          LGT RAIN  64  63  95 W14G21    29.73R
MARSHALL       LGT RAIN  64  63  96 NW18G25   29.69R
REDWOOD FALLS  LGT RAIN  65  62  90 NW18G28   29.61R
OLIVIA         CLOUDY    63  61  94 NW18G26   29.60R
PIPESTONE      CLOUDY    64  63  94 NW14G22   29.74S
WINDOM         PTCLDY    66  63  88 W17G24    29.67R
WORTHINGTON    CLOUDY    64  62  93 NW14      29.72R
JACKSON        CLOUDY    64  61  88 W15G22    29.69R
TRACY          LGT RAIN  65  65  99 NW15G24   29.69R
SLAYTON        CLOUDY    63  58  84 NW14      29.71S
$$
MNZ065>067-074>077-082>085-091>093-171100-
   South Central Minnesota

CITY           SKY/WX    TMP DP  RH WIND       PRES   REMARKS
MANKATO        LGT RAIN  65  63  93 W29G38    29.50R FOG
NEW ULM        LGT RAIN  64  63  94 W26G36    29.56R
ST JAMES       CLOUDY    64  63  94 W23G36    29.62R
FAIRMONT       CLOUDY    67  62  84 W21G29    29.65S
GLENCOE        DRIZZLE   66  67 100 NW14G23   29.48R
FARIBAULT      RAIN      66  64  94 S13G28    29.46F
OWATONNA       LGT RAIN  66  63  88 S25G31    29.51F
WASECA         DRIZZLE   63  61  94 SW22G31   29.53F
ALBERT LEA     CLOUDY    70  66  88 SW15G22   29.60F
$$
MNZ078>079-086>088-094>096-171100-
   Southeast Minnesota

CITY           SKY/WX    TMP DP  RH WIND       PRES   REMARKS
ROCHESTER      MOCLDY    65  64  97 S16       29.60S
RED WING       CLOUDY    70  63  78 S10       29.52F
STANTON        LGT RAIN  68  63  85 S16G28    29.46F
DODGE CENTER   MOCLDY    66  63  88 S15G22    29.57F
WINONA         CLOUDY    70  64  83 SW6       29.61S
AUSTIN         CLOUDY    66  63  88 SW12G20   29.62S
PRESTON        CLOUDY    65  63  93 SW12      29.64S
$$
ABBREVIATIONS USED IN REMARKS
   TC - TEMPERATURES IN CELSIUS
  WCI - WIND CHILL INDEX
   HX - HEAT INDEX
  VSB - VISIBILITY
$$




USA.gov is the U.S. government's official web portal to all federal, state and local government web resources and services.